Regional Weather Roundup
Issued by NWS Northern Indiana

Home | Current Version | Previous Version | Text Only | Print | Product List | Glossary On
Versions: 1 2 3 4 5 6 7 8 9 10 11 12 13 14 15 16 17 18 19 20 21 22 23 24 25 26 27 28 29 30 31 32 33 34 35 36 37 38 39 40 41 42 43 44 45 46 47 48 49 50
170
ASUS43 KIWX 241110
RWRIWX

KIWX WEATHER ROUNDUP
NATIONAL WEATHER SERVICE NORTHERN INDIANA
700 AM EDT TUE OCT 24 2017

NOTE: "FAIR" INDICATES FEW OR NO CLOUDS BELOW 12,000 FEET WITH NO
SIGNIFICANT WEATHER AND/OR OBSTRUCTIONS TO VISIBILITY.

* THESE STATIONS ARE NOT UNDER NWS QUALITY CONTROL. THEY ALSO MAY NOT
  REPORT WEATHER SUCH AS PRECIPITATION OR FOG.

INZ001>027-241200-
NORTHERN INDIANA

CITY           SKY/WX    TMP DP  RH WIND       PRES   REMARKS
GARY*          LGT RAIN  48  46  93 SW12      29.54S
VALPARAISO     LGT RAIN  48  46  93 SW10      29.54F
MICHIGAN CITY* LGT RAIN  46  46 100 SW9       29.53R
LAPORTE*       DRIZZLE   47  45  93 SW14      29.54S
KNOX*          CLOUDY    46  45  93 W13G18    29.54F
SOUTH BEND     LGT RAIN  47  47 100 SW17      29.52S
ELKHART*       RAIN      48  46  93 SW13      29.51
GOSHEN         CLOUDY    49  45  86 SW14      29.52S
MONTICELLO*    MOCLDY    45  43  95 SW12G17   29.59S
LOGANSPORT*    CLOUDY    45  41  87 W15       29.60S
WARSAW*        LGT RAIN  46  46 100 SW13G21   29.54S
AUBURN*        DRIZZLE   48  45  87 SW7       29.54R
FORT WAYNE     LGT RAIN  49  46  90 SW14      29.56S FOG
HUNTINGTON*    LGT RAIN  47  46  96 W13G21    29.57S
PERU/GRISSOM   CLOUDY    46  46  98 W15       29.59R
MARION*        CLOUDY    46  43  87 W15       29.60S

$$
INZ028>050-241200-
CENTRAL INDIANA

CITY           SKY/WX    TMP DP  RH WIND       PRES   REMARKS
LAFAYETTE      CLOUDY    46  44  93 SW8       29.62S
KOKOMO*        CLOUDY    46  44  93 W15       29.61R
MUNCIE*        LGT RAIN  50  46  86 W12       29.61R
INDIANAPOLIS   CLOUDY    48  44  86 W13       29.66R

$$
MIZ043>046-050>051-056>058-064>065-071>073-077>080-241200-
SOUTHWEST LOWER MICHIGAN

CITY           SKY/WX    TMP DP  RH WIND       PRES   REMARKS
BATTLE CREEK   LGT RAIN  50  49  96 S13       29.46F FOG
BENTON HARBOR  CLOUDY    51  46  83 SW18      29.48S
COLDWATER*     RAIN      49  49  99 SW13G18   29.49S
HILLSDALE*     CLOUDY    48  45  87 S9G16     29.50S
HOLLAND        RAIN      49  45  86 E6        29.46R
GRAND RAPIDS   LGT RAIN  48  48 100 S3        29.45S
KALAMAZOO      LGT RAIN  51  47  86 SW13      29.47F
STURGIS*       CLOUDY    48  46  95 SW10G16   29.50R
THREE RIVERS*  CLOUDY    50  48  92 SW9       29.50R

$$
OHZ001>008-015>018-024>025-241200-
NORTHWEST OHIO

CITY           SKY/WX    TMP DP  RH WIND       PRES   REMARKS
WAUSEON*       LGT RAIN  48  48 100 S12G20    29.54S
DEFIANCE       LGT RAIN  49  46  90 SW9       29.54F
FINDLAY        CLOUDY    49  45  86 S16       29.56F
TOLEDO EXPRESS CLOUDY    50  49  96 S8        29.55S
TOLEDO METCALF CLOUDY    50  46  86 S14       29.57F
LIMA           CLOUDY    49  47  93 S14       29.58R

$$
AND FOR LAKE MICHIGAN COASTAL AND OPEN LAKE BUOY OBSERVATIONS

STATION/POSITION TEMP    WIND        PRES    VSBY  WAVE
                 AIR SEA DIR/SP/G                  HT/PER
                 (F)     (DEG/KT/KT) (MB)    (MI)  (FT/S)
CALUMET HARBOR    47     230/  8/ 12  999.4F
MICHIGAN CITY     48     200/ 17/ 20   N/A
BURNS HARBOR      49     230/ 12/ 18 1000.7S
SAINT JOSEPH      52     240/ 20/ 25  998.6
SOUTH LAKE BUOY   52 60  330/ 10/ 14  997.4S         3/ 4
4 MI NW BRIDGMAN  52 57  260/ 19/ 25  999.1          7/ 5
MICHIGAN CITY     50 57  240/ 19/ 23   N/A           4/ 4

$$
&&




USA.gov is the U.S. government's official web portal to all federal, state and local government web resources and services.